ISS (ZARYA) 1 25544U 98067A 26072.38526547 .00010392 00000+0 19895-3 0 9996 2 25544 51.6324 54.0842 0007909 188.2233 171.8627 15.48625615556908 POISK 1 36086U 09060A 26072.38526547 .00010392 00000+0 19895-3 0 9994 2 36086 51.6324 54.0842 0007909 188.2233 171.8627 15.48625615554448 CSS (TIANHE) 1 48274U 21035A 26072.55482282 .00030215 00000+0 35350-3 0 9998 2 48274 41.4662 184.6407 0006739 297.0069 63.0081 15.60878289278210 ISS (NAUKA) 1 49044U 21066A 26072.38526547 .00010392 00000+0 19895-3 0 9992 2 49044 51.6324 54.0842 0007909 188.2233 171.8627 15.48625615554457 FREGAT DEB 1 49271U 11037PF 26071.98788539 .00019193 00000+0 27403-1 0 9997 2 49271 51.6525 290.8604 0961558 66.9712 302.9578 12.40314724213102 CSS (WENTIAN) 1 53239U 22085A 26072.55482282 .00030215 00000+0 35350-3 0 9991 2 53239 41.4662 184.6407 0006739 297.0069 63.0081 15.60878289275618 CSS (MENGTIAN) 1 54216U 22143A 26072.55482282 .00030215 00000+0 35350-3 0 9992 2 54216 41.4662 184.6407 0006739 297.0069 63.0081 15.60878289275580 PROGRESS-MS 31 1 64751U 25146A 26072.38526547 .00010392 00000+0 19895-3 0 9997 2 64751 51.6324 54.0842 0007909 188.2233 171.8627 15.48625615554460 TIANZHOU-9 1 64786U 25149A 26072.55482282 .00030215 00000+0 35350-3 0 9994 2 64786 41.4662 184.6407 0006739 297.0069 63.0081 15.60878289275594 PROGRESS-MS 32 1 65586U 25204A 26072.38526547 .00010392 00000+0 19895-3 0 9999 2 65586 51.6324 54.0842 0007909 188.2233 171.8627 15.48625615554502 CYGNUS NG-23 1 65616U 25208A 26072.57834176 .00006866 00000+0 12832-3 0 9993 2 65616 51.6322 53.1239 0007618 189.5476 170.5369 15.49954474 193 YOTSUBA-KULOVER 1 65941U 98067XN 26072.30764432 .00245250 00000+0 11334-2 0 9992 2 65941 51.6207 38.5032 0005145 94.5757 265.5833 15.82254050 24078 E-KAGAKU-1 1 65943U 98067XQ 26072.31297397 .00236005 00000+0 11129-2 0 9996 2 65943 51.6233 38.5579 0005696 99.5179 260.6467 15.81842071 24073 HRC MONOBLOCK CAMERA 1 66052U 98067XR 26072.28215557 .00055964 00000+0 61502-3 0 9996 2 66052 51.6278 47.3965 0003816 109.8372 250.3034 15.62620622 22959 HTV-X1 1 66174U 25241A 26072.42552678 .00014595 00000+0 62687-3 0 9999 2 66174 51.6353 55.0787 0005760 183.8769 176.2164 15.22885644 21523 SZ-21 MODULE 1 66515U 25246C 26072.57488950 .00042463 00000+0 36005-3 0 9990 2 66515 41.4731 179.4377 0001010 309.0341 51.0410 15.68874146 18689 SHENZHOU-22 1 66645U 25272A 26072.55482282 .00030215 00000+0 35350-3 0 9997 2 66645 41.4662 184.6407 0006739 297.0069 63.0081 15.60878289267524 SOYUZ-MS 28 1 66664U 25275A 26072.38526547 .00010392 00000+0 19895-3 0 9995 2 66664 51.6324 54.0842 0007909 188.2233 171.8627 15.48625615554522 DUPLEX 1 66906U 98067XS 26072.43875425 .00030156 00000+0 42283-3 0 9998 2 66906 51.6291 50.6945 0002664 127.4743 232.6492 15.56488826 15713 ISS OBJECT XT 1 66907U 98067XT 26072.33859250 .00173594 00000+0 13595-2 0 9993 2 66907 51.6247 47.0068 0004699 104.7322 255.4197 15.70505609 15756 ISS OBJECT XU 1 66908U 98067XU 26072.46373896 .00167250 00000+0 13010-2 0 9999 2 66908 51.6245 46.3387 0004897 107.7206 252.4326 15.70686547 15779 SILVERSAT 1 66909U 98067XV 26072.33066969 .00228210 00000+0 15396-2 0 9999 2 66909 51.6245 46.1985 0005406 105.6574 254.5022 15.73849745 15763 ISS OBJECT XW 1 66910U 98067XW 26072.20779928 .00156438 00000+0 12699-2 0 9998 2 66910 51.6244 47.6269 0005316 107.7849 252.3729 15.69697037 15730 ISS OBJECT XX 1 66911U 98067XX 26072.19322328 .00295789 00000+0 16950-2 0 9992 2 66911 51.6209 46.0092 0006894 108.6914 251.4835 15.77377567 15745 ISS OBJECT XY 1 66912U 98067XY 26072.28746810 .00099603 00000+0 10103-2 0 9990 2 66912 51.6270 48.9278 0003415 112.5167 247.6190 15.64420991 15715 KNACKSAT-2 1 67683U 98067XZ 26072.20473437 .00041086 00000+0 67024-3 0 9997 2 67683 51.6314 54.3798 0009479 198.5087 161.5560 15.52132550 5339 GXIBA-1 1 67684U 98067YA 26072.17149535 .00082155 00000+0 11972-2 0 9995 2 67684 51.6303 54.1588 0011339 187.6359 172.4461 15.54922629 5339 CORAL 1 67685U 98067YB 26072.32817294 .00046607 00000+0 74702-3 0 9990 2 67685 51.6311 53.7042 0011384 195.2471 164.8178 15.52544385 5358 ISS OBJECT YC 1 67686U 98067YC 26072.32130389 .00054336 00000+0 85087-3 0 9990 2 67686 51.6310 53.6604 0008229 163.4448 196.6813 15.53157245 5351 LEOPARD 1 67687U 98067YD 26072.52385704 .00046429 00000+0 75020-3 0 9996 2 67687 51.6316 52.7625 0008054 168.0251 192.0932 15.52357443 5308 ISS OBJECT YE 1 67688U 98067YE 26072.32442633 .00050148 00000+0 79443-3 0 9996 2 67688 51.6312 53.6814 0008083 164.1800 195.9444 15.52872730 5271 CREW DRAGON 12 1 67796U 26031A 26072.38526547 .00010392 00000+0 19895-3 0 9993 2 67796 51.6324 54.0842 0007909 188.2233 171.8627 15.48625615556802